Location: Brompton
(51.4000°N, 0.5333°E)
Time: 17:04:28
(UTC+00:00)

BREEZE-M R/B - Pass Details

Date: 11 May 2021
Orbit: 311 x 4501 km, 49.7° (Epoch: 21 June)

Event Time Altitude Azimuth Distance (km) Brightness Sun altitude
Rises 21:01:03 0° 250° (WSW) 2,190 6.2 -10.9°
Reaches altitude 10° 21:03:06 10° 244° (WSW) 1,231 4.8 -11.1°
Maximum altitude 21:05:29 47° 168° (SSE) 426 1.9 -11.3°
Enters shadow 21:07:41 13° 93° (E) 1,159 4.1 -11.5°
